User: anonymous   Login
Location: Unspecified
(0.0000°N, 0.0000°E)
Time: 15:27:01
(UTC+02:00)
Language:

AO-7 - Orbit

View from above orbital plane
View from above orbital plane
View from above satellite
View from above satellite

Ground track
Ground track

The orbit data is extracted from the following two-line orbital elements,

1 07530U 74089B   15144.47009174 -.00000032  00000-0  75324-4 0  9991
2 07530 101.5185 120.6772 0011976 351.9010 125.3430 12.53614347854287
Epoch (UTC): 24 May 2015 11:16:55
Eccentricity: 0.0011976
inclination: 101.5185°
perigee height: 1440 km
apogee height: 1459 km
right ascension of ascending node: 120.6772°
argument of perigee: 351.9010°
revolutions per day: 12.53614347
mean anomaly at epoch: 125.3430°
orbit number at epoch: 85428

The dashed part of the orbit path shows where the satellite is in the earth's shadow,  

DLR